Regional Weather Roundup
Issued by NWS Newport/Morehead, NC

Home | Current Version | Previous Version | Text Only | Print | Product List | Glossary On
Versions: 1 2 3 4 5 6 7 8 9 10 11 12 13 14 15 16 17 18 19 20 21 22 23 24 25 26 27 28 29 30 31 32 33 34 35 36
000
ASUS42 KMHX 250722
RWRMHX
WEATHER ROUNDUP FOR EASTERN NORTH CAROLINA
NATIONAL WEATHER SERVICE NEWPORT/MOREHEAD CITY NC
300 AM EDT FRI APR 25 2014

NOTE: "FAIR" INDICATES FEW OR NO CLOUDS BELOW 12,000 FEET
WITH NO SIGNIFICANT WEATHER AND/OR OBSTRUCTIONS TO VISIBILITY

NCZ015>017-031-032-045>047-102-103-250800-
NORTH COAST

CITY           SKY/WX    TMP DP  RH WIND       PRES   REMARKS
EDENTON        CLEAR     53  47  81 S5        30.01S
ELIZABETH CITY CLEAR     49  44  83 CALM      30.01F
KITTY HAWK     SUNNY     49  43  78 SE5       30.00F
MANTEO         CLEAR     47  45  90 CALM      30.02F

$$

NCZ045>047-081-094-103-104-250800-
CENTRAL COAST

CITY           SKY/WX    TMP DP  RH WIND       PRES   REMARKS
FRISCO         CLEAR     61  42  49 S6        30.02F
SWANQUARTER      N/A     54 N/A N/A SE1       29.97F

$$

NCZ095-097-098-100-101-250800-
SOUTHERN COAST

CITY           SKY/WX    TMP DP  RH WIND       PRES   REMARKS
BEAUFORT       PTCLDY    53  50  89 E5        30.00F
CEDAR ISLAND     N/A     55 N/A N/A SE3       30.03F
JACKSONVILLE   MOCLDY    57  57 100 E5        29.98F
NEWPORT          N/A     50  48  93 CALM        N/A
PINEY ISLAND   SUNNY     60  52  74 SE6       30.01F
WILMINGTON     CLEAR     58  55  90 CALM      29.97F


$$

NCZ011>013-027>030-043-044-078>080-089-090>093-098-250800-
COASTAL PLAIN

CITY           SKY/WX    TMP DP  RH WIND       PRES   REMARKS
AHOSKIE        CLEAR     43  40  88 CALM      30.01S
CLINTON        CLEAR     53  50  89 CALM      29.98F
ELIZABETHTOWN  CLEAR     55  51  86 CALM      29.97F
GOLDSBORO      MOCLDY    50  49  95 E3        29.97F
GREENVILLE     CLEAR     48  45  87 CALM      30.02S
HAVELOCK       PTCLDY    51  45  79 E3        30.01F
KENANSVILLE    CLOUDY    51  48  90 CALM      30.00S
KINSTON        PTCLDY    50  47  88 S3        30.00F
NEW BERN       CLEAR     50  45  83 CALM      30.01F
RICHLANDS      PTCLDY    52  50  93 N3        30.00S
ROANOKE RAPIDS NOT AVBL
ROCKY MOUNT    CLEAR     48  44  86 CALM      29.99F
WASHINGTON     CLEAR     51  46  85 CALM      30.01S
WHITEVILLE     CLEAR     57  54  91 CALM      29.95F

$$

AMZ130-135-150-152-154-156-158-170-250-252-270-ANZ085-086-088-633-658-670-250800-
MARINE OBSERVATIONS

STATION/POSITION TIME  TEMP    WIND        PRES    WAVE   SWELL
                       AIR SEA DIR/SP/G            HT/PER HT/PER
                 (UTC) (F)     (DEG/KT/KT) (MB)    (FT/S) (FT/S)
CHESAPEAKE LIGHT 0700   54     180/ 12/ 12 1016.8
BUOY 44014       0700   51 49  220/  6/  8 1016.5    2/ 6   2/ 6
DUCK             0700   52 51  150/  6/  7 1015.3
2E DUCK          0700      53                N/A     2/ 7
OREGON INLET     0700   52 56  110/  4/  5 1016.2
BUOY 44095       0700      50                N/A     3/ 7
HATTERAS CG      0700   61 63  140/  3/  4 1016.5
DIAMOND BUOY     NOT AVBL
CAPE LOOKOUT     0700   62      70/  6/  6 1015.6
BEAUFORT LAB     0700   60 63   90/  3/  4 1015.0
30 SE NEW RIVER  0700   69 69  190/ 12/ 14 1015.5    3/10   2/10
5 SE WRIGHTSVILL 0700   63 60  150/  6/  6 1014.7
FRYING PAN BUOY  0700   70 68  170/  8/  8 1014.4    3/ 9   3/ 9
BUOY 41001       NOT AVBL
BUOY 41002       NOT AVBL
BUOY 41004       0700   73 71  190/  6/  6 1013.5    3/ 6   3/ 6

$$



USA.gov is the U.S. government's official web portal to all federal, state and local government web resources and services.